STARLINK-30098, 56292

Orbit data source: Space-Track

STARLINK-30098, 56292 is a payload satellite owned by SpaceX/Seattle (US) in LEO that was launched on Wed, 19 Apr 2023 UTC via an FALCON 9 launch vehicle from the Air Force Eastern Test Range (AFETR). Payload-class satellites include a variety of spacecraft equipped with specific instruments for various scientific and technological missions. These include communications satellites like Starlink; space stations such as the ISS; scientific satellites like the Hubble; Earth observation satellites from companies like Planet Labs, Umbra, and HawkEye 360; GPS; miniature CubeSats for education and research; and military/defense satellites.

Loading next visibility...
Identifier
56292, 2023-056G
Orbit
LEO
Country
Flag of USUS
Related business
Manufacturer
SpaceX/Seattle
Mission
Operational Commercial Communications
Bus & Motor
STARLINK V2M, Unknown motor
Mass
730 kg wet, ~700 kg dry
Launch date (UTC)
2023-04-19 (3 years ago)
Launch vehicle
FALCON 9
Launch site
Air Force Eastern Test Range (AFETR)
Object type
Payload
Rocket body
Debris
Shape & HBR
Box + 2 Pan, 17.7 m
Radar Cross Section
33.884 m², Large (>1 m²)

Expand to show TLE details & history
Last TLE update: 16 hours ago

TLE from 16 hours ago
0 STARLINK-30098
1 56292U 23056G   25346.64177830  .00004395  00000-0  34027-3 0  9996
2 56292  43.0009 322.9278 0001532 274.8972  85.1696 15.02529278146934
Epoch: 2025-12-12T15:24Z
TLE epoch observation values (Epoch: 2025-12-12T15:24:09.645Z)
Latitude
0.00004°
Longitude
10.30718°
Altitude
558.789 km
Speed
7.584 km/s
True Right ascension
21h 31m 42s
True Declination
0° 00' 00"
Sunlit
Object was in daylight at epoch
Visualization orbit readout
Latitude
Unknown
Longitude
Unknown
Altitude
Unknown
Speed
Unknown
Apparent Right ascension
Unknown
Apparent Declination
Unknown
Sunlit
N/A
Visualization observer readout
Local Sidereal Time
05:23:57
Azimuth
Unknown
Elevation
Unknown
Doppler factor
Unknown
Orbital elements
Apogee altitude
562.087 km
Perigee altitude
559.961 km
Semi-major axis
6,939.161 km
Eccentricity
0.00015
Inclination
43.0009°
RAAN
322.9278°
Arg. of periapsis
274.8972°
True anomaly
85.18709°
Mean anomaly
85.1696°
Eccentric anomaly
85.17835°
Mean motion
3.75476 °/min
Orbital period
95.88 mins
BSTAR
0.00034027
Loading maneuver chart data...
Computing Atmospheric mass density...
Loading historical data...
Loading historical data...
Loading historical data...
Loading historical data...
Loading historical data...
Loading historical data...
Loading historical data...

Documentation

Showing up to 5 results
|